Location: Kaarina
(60.4167°N, 22.4167°E)
Time: 03:57:16
(UTC+03:00)

Cosmos 1943 - Pass Details

Date: 24 August 2019
Orbit: 833 x 851 km, 71.0° (Epoch: 17 October)

Event Time Altitude Azimuth Distance (km) Brightness Sun altitude
Rises 21:45:30 0° 244° (WSW) 3,404 6.8 -5.7°
Reaches altitude 10° 21:48:01 10° 249° (WSW) 2,474 6.2 -6.0°
Maximum altitude 21:53:32 50° 325° (NW) 1,080 4.3 -6.5°
Drops below altitude 10° 21:59:06 10° 41° (NE) 2,491 5.6 -7.1°
Sets 22:01:40 0° 46° (NE) 3,430 6.3 -7.3°
